FW9226 Weather Reports


Display with metric or nautical units.
time (UTC)temp
F
wind
direction
speed
MPH
gust
MPH
rain 1hr
in
rain 24hr
in
rain mn
in
humidity
%
barometer
mb
20260505223506 46 130 0.0 3.0 0.01 0.35 0.19 94 1014.9
20260505222004 46 37 0.0 2.0 0.01 0.35 0.19 94 1015.0
20260505221505 45 143 0.0 1.0 0.01 0.35 0.19 94 1015.1
20260505221007 45 140 0.0 1.0 0.00 0.34 0.18 94 1015.0
20260505220505 45 139 0.0 1.0 0.00 0.34 0.18 94 1015.1
20260505220007 45 120 0.0 2.0 0.00 0.34 0.18 95 1015.1
20260505215507 45 120 0.0 2.0 0.00 0.36 0.18 95 1015.2
20260505215006 45 70 0.0 2.0 0.00 0.36 0.18 95 1015.2
20260505214506 45 70 0.0 2.0 0.00 0.36 0.18 95 1015.1
20260505214006 45 74 0.0 2.0 0.00 0.36 0.18 94 1015.2
20260505213505 45 32 0.0 2.0 0.00 0.36 0.18 94 1015.2
20260505212505 45 83 0.0 2.0 0.00 0.36 0.18 95 1015.3
20260505212006 45 130 0.0 2.0 0.00 0.36 0.18 94 1015.3
20260505211506 45 135 0.0 2.0 0.00 0.36 0.18 94 1015.4
20260505211005 45 150 0.0 3.0 0.00 0.36 0.18 94 1015.3
20260505210007 45 58 0.0 3.0 0.00 0.37 0.18 94 1015.1
20260505204505 45 253 0.0 2.0 0.00 0.37 0.18 95 1015.2
20260505204005 45 82 0.0 2.0 0.00 0.37 0.18 94 1015.1
20260505203504 44 64 1.0 2.0 0.00 0.37 0.18 94 1015.1
20260505203007 45 54 0.0 1.0 0.00 0.37 0.18 94 1015.2
20260505202507 45 66 0.0 3.0 0.00 0.37 0.18 94 1015.1
20260505202005 45 117 1.0 3.0 0.00 0.37 0.18 94 1015.2
20260505201505 45 68 0.0 2.0 0.00 0.37 0.18 94 1015.0
20260505201006 45 134 1.0 2.0 0.00 0.37 0.18 94 1015.0
20260505200008 44 126 1.0 2.0 0.00 0.37 0.18 93 1015.0
20260505195007 45 130 0.0 3.0 0.00 0.37 0.18 94 1015.1
20260505194006 44 72 0.0 2.0 0.00 0.37 0.18 94 1015.2
20260505193506 45 1 1.0 5.0 0.00 0.37 0.18 94 1015.1
20260505193007 44 113 1.0 5.0 0.00 0.37 0.18 93 1015.0
20260505192006 45 72 1.0 4.0 0.00 0.37 0.18 93 1014.8
20260505191006 45 70 1.0 5.0 0.00 0.37 0.18 92 1014.8
20260505190507 45 116 1.0 5.0 0.00 0.37 0.18 91 1014.8
20260505190007 45 155 1.0 3.0 0.00 0.37 0.18 90 1014.5
20260505185507 46 131 0.0 2.0 0.00 0.37 0.18 89 1014.7
20260505185007 46 49 0.0 2.0 0.00 0.37 0.18 89 1014.6
20260505184506 46 321 0.0 1.0 0.00 0.37 0.18 89 1014.6
20260505184007 46 323 0.0 5.0 0.00 0.37 0.18 89 1014.7
20260505183504 46 190 1.0 5.0 0.00 0.37 0.18 88 1014.7
20260505183007 46 4 1.0 2.0 0.00 0.37 0.18 87 1014.7
20260505182505 46 80 1.0 2.0 0.00 0.37 0.18 88 1014.7
20260505182006 46 222 1.0 3.0 0.00 0.37 0.18 87 1014.7
20260505181506 47 163 1.0 3.0 0.00 0.37 0.18 87 1014.6
20260505181006 47 132 0.0 3.0 0.00 0.37 0.18 86 1014.5
20260505180506 48 115 0.0 2.0 0.00 0.37 0.18 84 1014.4
20260505180007 48 97 0.0 1.0 0.00 0.37 0.18 86 1014.3
20260505175006 48 333 0.0 2.0 0.00 0.42 0.18 85 1014.3
20260505174506 48 74 0.0 3.0 0.00 0.42 0.18 84 1014.2
20260505173506 47 105 0.0 1.0 0.00 0.42 0.18 85 1014.0
20260505173007 48 299 0.0 1.0 0.00 0.42 0.18 83 1014.0
20260505172506 48 146 0.0 2.0 0.00 0.42 0.18 85 1014.1
20260505172007 48 46 0.0 2.0 0.00 0.42 0.18 88 1014.0
20260505171507 47 138 0.0 2.0 0.00 0.42 0.18 87 1014.0
20260505171009 47 139 0.0 2.0 0.00 0.42 0.18 85 1014.1
20260505170504 47 152 0.0 1.0 0.00 0.42 0.18 85 1013.9
20260505170007 47 194 0.0 2.0 0.00 0.42 0.18 87 1013.7
20260505165008 47 276 0.0 2.0 0.00 0.45 0.18 86 1014.0
20260505164505 46 135 0.0 2.0 0.00 0.45 0.18 89 1013.9
20260505164006 46 195 0.0 2.0 0.00 0.45 0.18 90 1013.8
20260505163505 46 142 0.0 2.0 0.00 0.45 0.18 90 1013.7
20260505163005 45 142 0.0 2.0 0.00 0.45 0.18 91 1013.7
20260505162505 45 143 0.0 2.0 0.00 0.45 0.18 92 1013.8
20260505161505 44 114 0.0 1.0 0.00 0.45 0.18 94 1013.7
20260505153006 42 109 0.0 2.0 0.00 0.47 0.18 95 1013.4
20260505152505 42 109 0.0 2.0 0.00 0.47 0.18 95 1013.4
20260505152006 41 283 1.0 2.0 0.00 0.47 0.18 95 1013.4
20260505151505 41 283 1.0 2.0 0.00 0.47 0.18 95 1013.4
20260505151005 41 276 1.0 2.0 0.00 0.47 0.18 95 1013.5
20260505150505 41 274 0.0 1.0 0.01 0.47 0.18 95 1013.6
20260505125007 41 54 0.0 0.0 0.04 0.44 0.13 95 1013.1
20260505124505 41 54 0.0 0.0 0.04 0.44 0.13 95 1013.1
20260505124006 41 54 0.0 1.0 0.05 0.44 0.13 95 1013.0
20260505123505 41 54 0.0 1.0 0.04 0.43 0.12 95 1013.0
20260505123004 41 54 0.0 0.0 0.04 0.42 0.11 95 1012.9
20260505122505 41 54 0.0 0.0 0.04 0.42 0.11 95 1012.8
20260505122006 41 54 0.0 0.0 0.03 0.41 0.10 95 1013.0
20260505121500 41 54 0.0 0.0 0.03 0.41 0.10 95 1012.7
20260505120505 41 54 0.0 0.0 0.03 0.41 0.10 95 1012.8
20260505120006 41 54 0.0 0.0 0.03 0.41 0.10 95 1012.8
20260505115003 41 54 0.0 1.0 0.02 0.40 0.09 95 1012.9
20260505114005 41 54 0.0 0.0 0.01 0.39 0.08 95 1012.8
20260505113505 41 54 0.0 0.0 0.01 0.39 0.08 95 1012.8
20260505113000 41 54 0.0 0.0 0.00 0.38 0.07 95 1012.8
20260505112505 41 54 0.0 0.0 0.00 0.38 0.07 95 1012.8
20260505112005 41 54 0.0 1.0 0.00 0.38 0.07 95 1012.7
20260505111504 41 54 0.0 1.0 0.00 0.38 0.07 95 1012.7
20260505111001 41 54 0.0 1.0 0.00 0.38 0.07 95 1012.8
20260505110459 41 54 0.0 1.0 0.00 0.38 0.07 95 1013.0
20260505102006 41 54 0.0 0.0 0.00 0.38 0.07 95 1013.1
20260505101504 41 54 0.0 0.0 0.00 0.38 0.07 95 1013.1
20260505100505 41 54 0.0 0.0 0.00 0.38 0.07 95 1013.1
20260505095959 41 54 0.0 0.0 0.00 0.38 0.07 95 1013.3
20260505095458 41 54 0.0 0.0 0.00 0.38 0.07 95 1013.3
20260505094459 41 54 0.0 1.0 0.00 0.38 0.07 95 1013.3
20260505093959 41 54 0.0 0.0 0.00 0.38 0.07 95 1013.3
20260505093006 41 54 0.0 0.0 0.01 0.38 0.07 95 1013.4
20260505092458 41 54 0.0 0.0 0.01 0.38 0.07 95 1013.5
20260505092004 41 54 0.0 0.0 0.02 0.38 0.07 95 1013.6
20260505091503 41 54 0.0 0.0 0.02 0.38 0.07 95 1013.6
20260505091005 41 54 0.0 0.0 0.03 0.38 0.07 95 1013.6
20260505084959 41 54 0.0 1.0 0.03 0.38 0.07 95 1013.5
20260505084459 41 54 0.0 1.0 0.04 0.38 0.07 95 1013.6
20260505084000 41 54 0.0 1.0 0.04 0.38 0.07 95 1013.7
20260505083458 42 54 0.0 1.0 0.03 0.37 0.06 95 1013.8
20260505082459 42 54 0.0 1.0 0.04 0.37 0.06 95 1013.9
20260505082005 42 54 0.0 0.0 0.03 0.36 0.05 95 1013.9
20260505081504 42 54 0.0 0.0 0.04 0.36 0.05 95 1013.8
20260505080959 42 54 0.0 0.0 0.03 0.35 0.04 95 1013.9
20260505080504 42 54 0.0 1.0 0.03 0.35 0.04 95 1013.8
20260505075959 42 54 0.0 1.0 0.04 0.35 0.04 95 1013.7
20260505075458 42 54 0.0 0.0 0.04 0.35 0.04 95 1013.7
20260505075005 42 54 0.0 0.0 0.05 0.35 0.04 95 1013.7
20260505074506 42 54 0.0 0.0 0.05 0.34 0.03 95 1013.7
20260505073505 42 54 0.0 0.0 0.06 0.34 0.03 95 1013.7
20260505073000 42 54 0.0 0.0 0.06 0.33 0.02 95 1013.8
20260505072458 42 54 0.0 0.0 0.07 0.33 0.02 95 1013.7
20260505072005 42 54 0.0 0.0 0.08 0.33 0.02 95 1013.7
20260505071507 42 54 0.0 0.0 0.07 0.32 0.01 95 1013.7
20260505071006 42 54 0.0 0.0 0.08 0.32 0.01 95 1013.6
20260505070504 42 54 0.0 0.0 0.08 0.32 0.01 95 1013.7
20260505070016 42 54 0.0 0.0 0.08 0.31 0.00 95 1013.7
20260505065506 42 54 0.0 0.0 0.08 0.31 0.31 95 1013.7
20260505065006 42 54 0.0 0.0 0.07 0.30 0.30 95 1013.7
20260505064505 42 54 0.0 0.0 0.06 0.29 0.29 95 1013.7
20260505064006 42 54 0.0 0.0 0.06 0.29 0.29 95 1013.8
20260505063503 42 54 0.0 1.0 0.06 0.28 0.28 95 1013.8
20260505062505 42 54 0.0 1.0 0.04 0.26 0.26 95 1013.8
20260505062006 42 54 0.0 1.0 0.03 0.25 0.25 95 1013.8
20260505061505 42 54 0.0 0.0 0.03 0.25 0.25 95 1013.9
20260505061007 42 54 0.0 0.0 0.02 0.24 0.24 95 1013.9
20260505060505 42 54 0.0 0.0 0.03 0.24 0.24 95 1013.9
20260505060008 42 54 0.0 1.0 0.02 0.23 0.23 95 1013.9
20260505055006 42 55 0.0 1.0 0.02 0.23 0.23 95 1013.8
20260505054006 42 54 0.0 1.0 0.03 0.23 0.23 95 1013.8
20260505053505 42 55 0.0 1.0 0.02 0.22 0.22 94 1013.8
20260505053006 42 54 0.0 3.0 0.02 0.22 0.22 95 1013.9
20260505051504 42 58 0.0 2.0 0.02 0.22 0.22 95 1014.0
20260505051004 42 57 0.0 3.0 0.02 0.22 0.22 95 1014.0
20260505041006 42 91 0.0 1.0 0.01 0.20 0.20 94 1014.0
20260505040506 42 90 0.0 1.0 0.01 0.20 0.20 94 1014.0
20260505040006 42 90 0.0 1.0 0.00 0.19 0.19 94 1013.9
20260505035505 42 104 0.0 1.0 0.00 0.19 0.19 94 1013.9
20260505035006 42 120 0.0 3.0 0.00 0.19 0.19 94 1013.9
20260505034505 42 120 0.0 3.0 0.00 0.19 0.19 94 1013.9
20260505034005 42 73 0.0 2.0 0.00 0.19 0.19 94 1013.9
20260505032506 42 72 0.0 1.0 0.00 0.19 0.19 94 1013.7
20260505032005 42 72 0.0 1.0 0.00 0.19 0.19 94 1013.7
20260505030505 42 65 0.0 2.0 0.00 0.19 0.19 94 1013.7
20260505030010 42 99 0.0 1.0 0.00 0.19 0.19 94 1013.5
20260505025507 42 99 0.0 1.0 0.00 0.19 0.19 94 1013.6
20260505025004 42 99 0.0 1.0 0.00 0.19 0.19 94 1013.6
20260505024506 42 99 0.0 1.0 0.00 0.19 0.19 94 1013.6
20260505024006 42 99 0.0 2.0 0.00 0.19 0.19 94 1013.7
20260505023006 42 104 0.0 1.0 0.00 0.19 0.19 94 1013.8
20260505022504 42 104 0.0 1.0 0.00 0.19 0.19 94 1013.6
20260505021506 42 104 0.0 1.0 0.00 0.19 0.19 94 1013.8
20260505021009 42 105 0.0 2.0 0.00 0.19 0.19 94 1014.0
20260505020505 42 104 0.0 2.0 0.00 0.19 0.19 94 1013.9
20260505020016 42 72 0.0 1.0 0.00 0.19 0.19 94 1014.0
20260505014506 42 77 0.0 5.0 0.00 0.19 0.19 93 1014.2
20260505014013 43 75 0.0 4.0 0.00 0.19 0.19 94 1014.2
20260505013505 43 56 0.0 4.0 0.00 0.19 0.19 93 1014.2
20260505013008 43 83 0.0 1.0 0.00 0.19 0.19 93 1014.3
20260505012505 43 93 0.0 1.0 0.00 0.19 0.19 94 1014.3
20260505012007 43 93 0.0 1.0 0.00 0.19 0.19 93 1014.3
20260505011507 43 73 0.0 2.0 0.00 0.19 0.19 93 1014.2
20260505011007 43 93 0.0 2.0 0.00 0.19 0.19 93 1014.3
20260505010505 43 91 1.0 5.0 0.00 0.19 0.19 92 1014.3
20260505010009 43 55 1.0 5.0 0.00 0.19 0.19 93 1014.3
20260505005505 43 86 1.0 4.0 0.00 0.19 0.19 93 1014.4
20260505005013 43 99 0.0 4.0 0.00 0.19 0.19 93 1014.3
20260505004505 44 141 0.0 3.0 0.00 0.19 0.19 93 1014.3
20260505004005 44 130 0.0 3.0 0.00 0.19 0.19 93 1014.3
20260505003006 44 94 0.0 2.0 0.00 0.19 0.19 93 1014.2
20260505002007 44 115 0.0 5.0 0.00 0.19 0.19 93 1014.2
20260505001506 44 140 0.0 5.0 0.00 0.19 0.19 93 1014.1
20260505001012 44 233 0.0 2.0 0.00 0.19 0.19 93 1014.2
20260504235504 44 110 1.0 2.0 0.00 0.19 0.19 94 1014.2
20260504235005 44 77 1.0 5.0 0.00 0.19 0.19 94 1014.3
20260504234505 43 59 1.0 5.0 0.00 0.19 0.19 94 1014.5
20260504234006 43 62 1.0 3.0 0.01 0.19 0.19 93 1014.4
20260504233505 43 100 0.0 2.0 0.02 0.19 0.19 94 1014.4
20260504232005 43 111 0.0 2.0 0.02 0.19 0.19 94 1014.5
20260504231500 43 120 0.0 2.0 0.03 0.19 0.19 94 1014.5
20260504231005 43 254 1.0 4.0 0.03 0.19 0.19 94 1014.5
20260504230500 43 96 1.0 4.0 0.04 0.19 0.19 94 1014.5
20260504230002 43 112 1.0 4.0 0.04 0.19 0.19 94 1014.4
20260504225504 43 98 1.0 4.0 0.05 0.19 0.19 94 1014.5
20260504225005 43 79 0.0 3.0 0.05 0.19 0.19 94 1014.6
20260504224505 43 87 1.0 3.0 0.05 0.19 0.19 94 1014.6